Time,TemperatureF,DewpointF,PressureIn,WindDirection,WindDirectionDegrees,WindSpeedMPH,WindSpeedGustMPH,Humidity,HourlyPrecipIn,Conditions,Clouds,dailyrainin,SoftwareType,DateUTC
2013-02-17 00:00:00,16.0,-99.9,-100.00,South,171,2.0,-999.0,-999,0.00,,,0.00,,2013-02-17 06:00:00,
2013-02-17 00:22:00,16.0,-99.9,-100.00,South,171,2.0,-999.0,-999,0.00,,,0.00,,2013-02-17 06:22:00,
2013-02-17 00:32:00,16.0,-99.9,-100.00,South,171,2.0,-999.0,-999,0.00,,,0.00,,2013-02-17 06:32:00,
2013-02-17 00:42:00,16.0,-99.9,-100.00,South,171,2.0,-999.0,-999,0.00,,,0.00,,2013-02-17 06:42:00,
2013-02-17 00:52:00,16.0,-99.9,-100.00,South,171,2.0,-999.0,-999,0.00,,,0.00,,2013-02-17 06:52:00,
2013-02-17 01:00:00,16.0,-99.9,-100.00,SSE,149,2.0,-999.0,-999,0.00,,,0.00,,2013-02-17 07:00:00,
2013-02-17 01:32:00,16.0,-99.9,-100.00,SSE,149,2.0,-999.0,-999,0.00,,,0.00,,2013-02-17 07:32:00,
2013-02-17 01:42:00,16.0,-99.9,-100.00,SSE,149,2.0,-999.0,-999,0.00,,,0.00,,2013-02-17 07:42:00,
2013-02-17 01:52:00,16.0,-99.9,-100.00,SSE,149,2.0,-999.0,-999,0.00,,,0.00,,2013-02-17 07:52:00,
2013-02-17 02:00:00,16.0,-99.9,-100.00,SSE,149,3.0,-999.0,-999,0.00,,,0.00,,2013-02-17 08:00:00,
2013-02-17 02:22:00,16.0,-99.9,-100.00,SSE,149,3.0,-999.0,-999,0.00,,,0.00,,2013-02-17 08:22:00,
2013-02-17 02:32:00,16.0,-99.9,-100.00,SSE,149,3.0,-999.0,-999,0.00,,,0.00,,2013-02-17 08:32:00,
2013-02-17 02:42:00,16.0,-99.9,-100.00,SSE,149,3.0,-999.0,-999,0.00,,,0.00,,2013-02-17 08:42:00,
2013-02-17 02:52:00,16.0,-99.9,-100.00,SSE,149,3.0,-999.0,-999,0.00,,,0.00,,2013-02-17 08:52:00,
2013-02-17 03:00:00,16.0,-99.9,-100.00,SE,143,6.0,-999.0,-999,0.00,,,0.00,,2013-02-17 09:00:00,
2013-02-17 03:22:00,16.0,-99.9,-100.00,SE,143,6.0,-999.0,-999,0.00,,,0.00,,2013-02-17 09:22:00,
2013-02-17 03:32:00,16.0,-99.9,-100.00,SE,143,6.0,-999.0,-999,0.00,,,0.00,,2013-02-17 09:32:00,
2013-02-17 03:42:00,16.0,-99.9,-100.00,SE,143,6.0,-999.0,-999,0.00,,,0.00,,2013-02-17 09:42:00,
2013-02-17 03:52:00,16.0,-99.9,-100.00,SE,143,6.0,-999.0,-999,0.00,,,0.00,,2013-02-17 09:52:00,
2013-02-17 04:00:00,15.0,-99.9,-100.00,SE,132,4.0,-999.0,-999,0.00,,,0.00,,2013-02-17 10:00:00,
2013-02-17 04:22:00,15.0,-99.9,-100.00,SE,132,4.0,-999.0,-999,0.00,,,0.00,,2013-02-17 10:22:00,
2013-02-17 04:32:00,15.0,-99.9,-100.00,SE,132,4.0,-999.0,-999,0.00,,,0.00,,2013-02-17 10:32:00,
2013-02-17 04:42:00,15.0,-99.9,-100.00,SE,132,4.0,-999.0,-999,0.00,,,0.00,,2013-02-17 10:42:00,
2013-02-17 04:52:00,15.0,-99.9,-100.00,SE,132,4.0,-999.0,-999,0.00,,,0.00,,2013-02-17 10:52:00,
2013-02-17 05:00:00,14.0,-99.9,-100.00,SE,125,3.0,-999.0,-999,0.00,,,0.00,,2013-02-17 11:00:00,
2013-02-17 05:22:00,14.0,-99.9,-100.00,SE,125,3.0,-999.0,-999,0.00,,,0.00,,2013-02-17 11:22:00,
2013-02-17 05:32:00,14.0,-99.9,-100.00,SE,125,3.0,-999.0,-999,0.00,,,0.00,,2013-02-17 11:32:00,
2013-02-17 05:42:00,14.0,-99.9,-100.00,SE,125,3.0,-999.0,-999,0.00,,,0.00,,2013-02-17 11:42:00,
2013-02-17 05:53:00,14.0,-99.9,-100.00,SE,125,3.0,-999.0,-999,0.00,,,0.00,,2013-02-17 11:53:00,
2013-02-17 06:00:00,14.0,-99.9,-100.00,SE,128,4.0,-999.0,-999,0.00,,,0.00,,2013-02-17 12:00:00,
2013-02-17 06:22:00,14.0,-99.9,-100.00,SE,128,4.0,-999.0,-999,0.00,,,0.00,,2013-02-17 12:22:00,
2013-02-17 06:32:00,14.0,-99.9,-100.00,SE,128,4.0,-999.0,-999,0.00,,,0.00,,2013-02-17 12:32:00,
2013-02-17 06:42:00,14.0,-99.9,-100.00,SE,128,4.0,-999.0,-999,0.00,,,0.00,,2013-02-17 12:42:00,
2013-02-17 06:52:00,14.0,-99.9,-100.00,SE,128,4.0,-999.0,-999,0.00,,,0.00,,2013-02-17 12:52:00,
2013-02-17 07:00:00,14.0,-99.9,-100.00,SE,137,5.0,-999.0,-999,0.00,,,0.00,,2013-02-17 13:00:00,
2013-02-17 07:22:00,14.0,-99.9,-100.00,SE,137,5.0,-999.0,-999,0.00,,,0.00,,2013-02-17 13:22:00,
2013-02-17 07:32:00,14.0,-99.9,-100.00,SE,137,5.0,-999.0,-999,0.00,,,0.00,,2013-02-17 13:32:00,
2013-02-17 07:42:00,14.0,-99.9,-100.00,SE,137,5.0,-999.0,-999,0.00,,,0.00,,2013-02-17 13:42:00,
2013-02-17 07:52:00,14.0,-99.9,-100.00,SE,137,5.0,-999.0,-999,0.00,,,0.00,,2013-02-17 13:52:00,
2013-02-17 08:00:00,17.0,-99.9,-100.00,SE,133,5.0,-999.0,-999,0.00,,,0.00,,2013-02-17 14:00:00,
2013-02-17 08:22:00,17.0,-99.9,-100.00,SE,133,5.0,-999.0,-999,0.00,,,0.00,,2013-02-17 14:22:00,
2013-02-17 08:32:00,17.0,-99.9,-100.00,SE,133,5.0,-999.0,-999,0.00,,,0.00,,2013-02-17 14:32:00,
2013-02-17 08:42:00,17.0,-99.9,-100.00,SE,133,5.0,-999.0,-999,0.00,,,0.00,,2013-02-17 14:42:00,
2013-02-17 08:53:00,17.0,-99.9,-100.00,SE,133,5.0,-999.0,-999,0.00,,,0.00,,2013-02-17 14:53:00,
2013-02-17 09:00:00,20.0,-99.9,-100.00,SSE,153,10.0,-999.0,-999,0.00,,,0.00,,2013-02-17 15:00:00,
2013-02-17 09:22:00,20.0,-99.9,-100.00,SSE,153,10.0,-999.0,-999,0.00,,,0.00,,2013-02-17 15:22:00,
2013-02-17 09:32:00,20.0,-99.9,-100.00,SSE,153,10.0,-999.0,-999,0.00,,,0.00,,2013-02-17 15:32:00,
2013-02-17 09:42:00,20.0,-99.9,-100.00,SSE,153,10.0,-999.0,-999,0.00,,,0.00,,2013-02-17 15:42:00,
2013-02-17 09:52:00,20.0,-99.9,-100.00,SSE,153,10.0,-999.0,-999,0.00,,,0.00,,2013-02-17 15:52:00,
2013-02-17 10:00:00,24.0,-99.9,-100.00,SE,140,9.0,-999.0,-999,0.00,,,0.00,,2013-02-17 16:00:00,
2013-02-17 10:22:00,24.0,-99.9,-100.00,SE,140,9.0,-999.0,-999,0.00,,,0.00,,2013-02-17 16:22:00,
2013-02-17 10:32:00,24.0,-99.9,-100.00,SE,140,9.0,-999.0,-999,0.00,,,0.00,,2013-02-17 16:32:00,
2013-02-17 10:42:00,24.0,-99.9,-100.00,SE,140,9.0,-999.0,-999,0.00,,,0.00,,2013-02-17 16:42:00,
2013-02-17 10:52:00,24.0,-99.9,-100.00,SE,140,9.0,-999.0,-999,0.00,,,0.00,,2013-02-17 16:52:00,
2013-02-17 11:00:00,27.0,-99.9,-100.00,SSE,157,11.0,-999.0,-999,0.00,,,0.00,,2013-02-17 17:00:00,
2013-02-17 11:22:00,27.0,-99.9,-100.00,SSE,157,11.0,-999.0,-999,0.00,,,0.00,,2013-02-17 17:22:00,
2013-02-17 11:32:00,27.0,-99.9,-100.00,SSE,157,11.0,-999.0,-999,0.00,,,0.00,,2013-02-17 17:32:00,
2013-02-17 11:42:00,27.0,-99.9,-100.00,SSE,157,11.0,-999.0,-999,0.00,,,0.00,,2013-02-17 17:42:00,
2013-02-17 11:53:00,27.0,-99.9,-100.00,SSE,157,11.0,-999.0,-999,0.00,,,0.00,,2013-02-17 17:53:00,
2013-02-17 12:00:00,31.0,-99.9,-100.00,SSE,151,9.0,-999.0,-999,0.00,,,0.00,,2013-02-17 18:00:00,
2013-02-17 12:22:00,31.0,-99.9,-100.00,SSE,151,9.0,-999.0,-999,0.00,,,0.00,,2013-02-17 18:22:00,
2013-02-17 12:33:00,31.0,-99.9,-100.00,SSE,151,9.0,-999.0,-999,0.00,,,0.00,,2013-02-17 18:33:00,
2013-02-17 12:42:00,31.0,-99.9,-100.00,SSE,151,9.0,-999.0,-999,0.00,,,0.00,,2013-02-17 18:42:00,
2013-02-17 12:52:00,31.0,-99.9,-100.00,SSE,151,9.0,-999.0,-999,0.00,,,0.00,,2013-02-17 18:52:00,
2013-02-17 13:00:00,34.0,-99.9,-100.00,SE,142,12.0,-999.0,-999,0.00,,,0.00,,2013-02-17 19:00:00,
2013-02-17 13:32:00,34.0,-99.9,-100.00,SE,142,12.0,-999.0,-999,0.00,,,0.00,,2013-02-17 19:32:00,
2013-02-17 13:42:00,34.0,-99.9,-100.00,SE,142,12.0,-999.0,-999,0.00,,,0.00,,2013-02-17 19:42:00,
2013-02-17 13:52:00,34.0,-99.9,-100.00,SE,142,12.0,-999.0,-999,0.00,,,0.00,,2013-02-17 19:52:00,
2013-02-17 14:00:00,36.0,-99.9,-100.00,SSE,150,11.0,-999.0,-999,0.00,,,0.00,,2013-02-17 20:00:00,
2013-02-17 14:22:00,36.0,-99.9,-100.00,SSE,150,11.0,-999.0,-999,0.00,,,0.00,,2013-02-17 20:22:00,
2013-02-17 14:32:00,36.0,-99.9,-100.00,SSE,150,11.0,-999.0,-999,0.00,,,0.00,,2013-02-17 20:32:00,
2013-02-17 14:43:00,36.0,-99.9,-100.00,SSE,150,11.0,-999.0,-999,0.00,,,0.00,,2013-02-17 20:43:00,
2013-02-17 14:52:00,36.0,-99.9,-100.00,SSE,150,11.0,-999.0,-999,0.00,,,0.00,,2013-02-17 20:52:00,
2013-02-17 15:00:00,37.0,-99.9,-100.00,SE,145,9.0,-999.0,-999,0.00,,,0.00,,2013-02-17 21:00:00,
2013-02-17 15:22:00,37.0,-99.9,-100.00,SE,145,9.0,-999.0,-999,0.00,,,0.00,,2013-02-17 21:22:00,
2013-02-17 15:32:00,37.0,-99.9,-100.00,SE,145,9.0,-999.0,-999,0.00,,,0.00,,2013-02-17 21:32:00,
2013-02-17 15:42:00,37.0,-99.9,-100.00,SE,145,9.0,-999.0,-999,0.00,,,0.00,,2013-02-17 21:42:00,
2013-02-17 15:53:00,37.0,-99.9,-100.00,SE,145,9.0,-999.0,-999,0.00,,,0.00,,2013-02-17 21:53:00,
2013-02-17 16:00:00,38.0,-99.9,-100.00,South,170,10.0,-999.0,-999,0.00,,,0.00,,2013-02-17 22:00:00,
2013-02-17 16:22:00,38.0,-99.9,-100.00,South,170,10.0,-999.0,-999,0.00,,,0.00,,2013-02-17 22:22:00,
2013-02-17 16:32:00,38.0,-99.9,-100.00,South,170,10.0,-999.0,-999,0.00,,,0.00,,2013-02-17 22:32:00,
2013-02-17 16:42:00,38.0,-99.9,-100.00,South,170,10.0,-999.0,-999,0.00,,,0.00,,2013-02-17 22:42:00,
2013-02-17 16:52:00,38.0,-99.9,-100.00,South,170,10.0,-999.0,-999,0.00,,,0.00,,2013-02-17 22:52:00,
2013-02-17 17:00:00,37.0,-99.9,-100.00,SSE,151,10.0,-999.0,-999,0.00,,,0.00,,2013-02-17 23:00:00,
2013-02-17 17:22:00,37.0,-99.9,-100.00,SSE,151,10.0,-999.0,-999,0.00,,,0.00,,2013-02-17 23:22:00,
2013-02-17 17:32:00,37.0,-99.9,-100.00,SSE,151,10.0,-999.0,-999,0.00,,,0.00,,2013-02-17 23:32:00,
2013-02-17 17:42:00,37.0,-99.9,-100.00,SSE,151,10.0,-999.0,-999,0.00,,,0.00,,2013-02-17 23:42:00,
2013-02-17 17:52:00,37.0,-99.9,-100.00,SSE,151,10.0,-999.0,-999,0.00,,,0.00,,2013-02-17 23:52:00,
2013-02-17 18:00:00,35.0,-99.9,-100.00,SE,141,9.0,-999.0,-999,0.00,,,0.00,,2013-02-18 00:00:00,
2013-02-17 18:22:00,35.0,-99.9,-100.00,SE,141,9.0,-999.0,-999,0.00,,,0.00,,2013-02-18 00:22:00,
2013-02-17 18:32:00,35.0,-99.9,-100.00,SE,141,9.0,-999.0,-999,0.00,,,0.00,,2013-02-18 00:32:00,
2013-02-17 18:42:00,35.0,-99.9,-100.00,SE,141,9.0,-999.0,-999,0.00,,,0.00,,2013-02-18 00:42:00,
2013-02-17 18:52:00,35.0,-99.9,-100.00,SE,141,9.0,-999.0,-999,0.00,,,0.00,,2013-02-18 00:52:00,
2013-02-17 19:00:00,34.0,-99.9,-100.00,SE,134,8.0,-999.0,-999,0.00,,,0.00,,2013-02-18 01:00:00,
2013-02-17 19:22:00,34.0,-99.9,-100.00,SE,134,8.0,-999.0,-999,0.00,,,0.00,,2013-02-18 01:22:00,
2013-02-17 19:32:00,34.0,-99.9,-100.00,SE,134,8.0,-999.0,-999,0.00,,,0.00,,2013-02-18 01:32:00,
2013-02-17 19:42:00,34.0,-99.9,-100.00,SE,134,8.0,-999.0,-999,0.00,,,0.00,,2013-02-18 01:42:00,
2013-02-17 19:52:00,34.0,-99.9,-100.00,SE,134,8.0,-999.0,-999,0.00,,,0.00,,2013-02-18 01:52:00,
2013-02-17 20:00:00,34.0,-99.9,-100.00,SSE,158,11.0,-999.0,-999,0.00,,,0.00,,2013-02-18 02:00:00,
2013-02-17 20:22:00,34.0,-99.9,-100.00,SSE,158,11.0,-999.0,-999,0.00,,,0.00,,2013-02-18 02:22:00,
2013-02-17 20:32:00,34.0,-99.9,-100.00,SSE,158,11.0,-999.0,-999,0.00,,,0.00,,2013-02-18 02:32:00,
2013-02-17 20:42:00,34.0,-99.9,-100.00,SSE,158,11.0,-999.0,-999,0.00,,,0.00,,2013-02-18 02:42:00,
2013-02-17 20:52:00,34.0,-99.9,-100.00,SSE,158,11.0,-999.0,-999,0.00,,,0.00,,2013-02-18 02:52:00,
2013-02-17 21:00:00,34.0,-99.9,-100.00,SSE,148,12.0,-999.0,-999,0.00,,,0.00,,2013-02-18 03:00:00,
2013-02-17 21:32:00,34.0,-99.9,-100.00,SSE,148,12.0,-999.0,-999,0.00,,,0.00,,2013-02-18 03:32:00,
2013-02-17 21:42:00,34.0,-99.9,-100.00,SSE,148,12.0,-999.0,-999,0.00,,,0.00,,2013-02-18 03:42:00,
2013-02-17 21:52:00,34.0,-99.9,-100.00,SSE,148,12.0,-999.0,-999,0.00,,,0.00,,2013-02-18 03:52:00,
2013-02-17 22:00:00,33.0,-99.9,-100.00,SSE,148,9.0,-999.0,-999,0.00,,,0.00,,2013-02-18 04:00:00,
2013-02-17 22:22:00,33.0,-99.9,-100.00,SSE,148,9.0,-999.0,-999,0.00,,,0.00,,2013-02-18 04:22:00,
2013-02-17 22:32:00,33.0,-99.9,-100.00,SSE,148,9.0,-999.0,-999,0.00,,,0.00,,2013-02-18 04:32:00,
2013-02-17 22:42:00,33.0,-99.9,-100.00,SSE,148,9.0,-999.0,-999,0.00,,,0.00,,2013-02-18 04:42:00,
2013-02-17 22:52:00,33.0,-99.9,-100.00,SSE,148,9.0,-999.0,-999,0.00,,,0.00,,2013-02-18 04:52:00,
2013-02-17 23:00:00,33.0,-99.9,-100.00,SE,142,7.0,-999.0,-999,0.00,,,0.00,,2013-02-18 05:00:00,
2013-02-17 23:22:00,33.0,-99.9,-100.00,SE,142,7.0,-999.0,-999,0.00,,,0.00,,2013-02-18 05:22:00,
2013-02-17 23:32:00,33.0,-99.9,-100.00,SE,142,7.0,-999.0,-999,0.00,,,0.00,,2013-02-18 05:32:00,
2013-02-17 23:42:00,33.0,-99.9,-100.00,SE,142,7.0,-999.0,-999,0.00,,,0.00,,2013-02-18 05:42:00,
2013-02-17 23:52:00,33.0,-99.9,-100.00,SE,142,7.0,-999.0,-999,0.00,,,0.00,,2013-02-18 05:52:00,